H1 CPF 2 NER 2023 8 24 9 236 01 glonass143 H2 2007501 9143 46805 2023 8 24 0 0 0 2023 8 27 23 45 0 900 1 1 0 0 0 1 H9 10 0 60180 0.00000 0 10293296.753 21480427.543 9117690.828 10 0 60180 900.00000 0 10697907.452 22336035.660 6086021.156 10 0 60180 1800.00000 0 11027350.528 22804730.570 2936046.776 10 0 60180 2700.00000 0 11226130.337 22892816.971 -271013.708 10 0 60180 3600.00000 0 11242409.531 22619437.532 -3472799.471 10 0 60180 4500.00000 0 11030425.763 22015650.088 -6607025.832 10 0 60180 5400.00000 0 10552662.849 21123020.000 -9612703.143 10 0 60180 6300.00000 0 9781683.016 19991787.228 -12431331.591 10 0 60180 7200.00000 0 8701541.187 18678685.853 -15008047.661 10 0 60180 8100.00000 0 7308719.953 17244508.588 -17292699.110 10 0 60180 9000.00000 0 5612544.257 15751519.547 -19240826.823 10 0 60180 9900.00000 0 3635056.969 14260824.943 -20814533.950 10 0 60180 10800.00000 0 1410359.379 12829812.890 -21983225.207 10 0 60180 11700.00000 0 -1016556.738 11509770.309 -22724201.970 10 0 60180 12600.00000 0 -3591437.326 10343777.196 -23023101.803 10 0 60180 13500.00000 0 -6252787.103 9364966.447 -22874174.218 10 0 60180 14400.00000 0 -8934199.569 8595221.769 -22280387.734 10 0 60180 15300.00000 0 -11566899.189 8044367.563 -21253366.579 10 0 60180 16200.00000 0 -14082390.170 7709883.742 -19813158.672 10 0 60180 17100.00000 0 -16415101.891 7577156.291 -17987839.705 10 0 60180 18000.00000 0 -18504921.156 7620251.747 -15812961.323 10 0 60180 18900.00000 0 -20299506.302 7803181.760 -13330854.349 10 0 60180 19800.00000 0 -21756287.309 8081603.217 -10589800.805 10 0 60180 20700.00000 0 -22844069.212 8404881.188 -7643091.070 10 0 60180 21600.00000 0 -23544172.808 8718426.640 -4547984.781 10 0 60180 22500.00000 0 -23851066.055 8966209.474 -1364595.897 10 0 60180 23400.00000 0 -23772460.897 9093340.060 1845276.004 10 0 60180 24300.00000 0 -23328872.762 9048609.817 5019345.278 10 0 60180 25200.00000 0 -22552662.370 8786883.164 8096047.125 10 0 60180 26100.00000 0 -21486601.129 8271239.696 11015728.338 10 0 60180 27000.00000 0 -20182021.203 7474776.029 13721798.928 10 0 60180 27900.00000 0 -18696628.345 6381991.218 16161822.671 10 0 60180 28800.00000 0 -17092069.495 4989697.124 18288525.937 10 0 60180 29700.00000 0 -15431356.890 3307415.015 20060706.035 10 0 60180 30600.00000 0 -13776256.073 1357240.978 21444022.338 10 0 60180 31500.00000 0 -12184746.373 -826815.263 22411655.700 10 0 60180 32400.00000 0 -10708659.096 -3199991.824 22944824.249 10 0 60180 33300.00000 0 -9391591.110 -5708389.618 23033146.132 10 0 60180 34200.00000 0 -8267180.048 -8290975.242 22674842.545 10 0 60180 35100.00000 0 -7357812.340 -10881890.299 21876777.101 10 0 60180 36000.00000 0 -6673817.427 -13412972.890 20654330.412 10 0 60180 36900.00000 0 -6213181.479 -15816388.003 19031111.626 10 0 60180 37800.00000 0 -5961792.455 -18027258.711 17038511.558 10 0 60180 38700.00000 0 -5894206.255 -19986189.629 14715104.947 10 0 60180 39600.00000 0 -5974902.006 -21641578.014 12105912.276 10 0 60180 40500.00000 0 -6159973.834 -22951616.272 9261534.436 10 0 60180 41400.00000 0 -6399188.018 -23885902.036 6237176.108 10 0 60180 42300.00000 0 -6638318.643 -24426587.990 3091576.361 10 0 60180 43200.00000 0 -6821662.778 -24569022.741 -114133.004 10 0 60180 44100.00000 0 -6894628.173 -24321855.244 -3317618.995 10 0 60180 45000.00000 0 -6806283.053 -23706597.945 -6456565.131 10 0 60180 45900.00000 0 -6511758.842 -22756666.751 -9469890.882 10 0 60180 46800.00000 0 -5974402.706 -21515938.157 -12298948.201 10 0 60180 47700.00000 0 -5167587.269 -20036884.485 -14888670.888 10 0 60180 48600.00000 0 -4076099.440 -18378366.124 -17188653.529 10 0 60180 49500.00000 0 -2697048.116 -16603174.164 -19154138.358 10 0 60180 50400.00000 0 -1040251.083 -14775427.336 -20746890.270 10 0 60180 51300.00000 0 871916.470 -12957933.153 -21935942.794 10 0 60180 52200.00000 0 3005206.582 -11209624.328 -22698200.499 10 0 60180 53100.00000 0 5314688.462 -9583178.170 -23018886.330 10 0 60180 54000.00000 0 7746394.666 -8122918.545 -22891825.502 10 0 60180 54900.00000 0 10239355.257 -6863087.784 -22319560.890 10 0 60180 55800.00000 0 12727935.408 -5826560.167 -21313298.045 10 0 60180 56700.00000 0 15144379.256 -5024049.746 -19892681.343 10 0 60180 57600.00000 0 17421454.214 -4453844.400 -18085405.911 10 0 60180 58500.00000 0 19495085.716 -4102075.810 -15926673.188 10 0 60180 59400.00000 0 21306872.806 -3943512.427 -13458500.917 10 0 60180 60300.00000 0 22806380.033 -3942840.552 -10728901.208 10 0 60180 61200.00000 0 23953110.385 -4056378.115 -7790942.898 10 0 60180 62100.00000 0 24718077.474 -4234147.594 -4701716.697 10 0 60180 63000.00000 0 25084912.002 -4422219.473 -1521223.503 10 0 60180 63900.00000 0 25050457.066 -4565226.378 1688792.168 10 0 60180 64800.00000 0 24624828.337 -4608940.977 4866040.729 10 0 60180 65700.00000 0 23830937.607 -4502808.287 7948894.578 10 0 60180 66600.00000 0 22703500.561 -4202325.063 10877580.152 10 0 60180 67500.00000 0 21287571.167 -3671165.693 13595331.989 10 0 60180 68400.00000 0 19636664.585 -2882964.743 16049486.757 10 0 60180 69300.00000 0 17810547.464 -1822680.870 18192496.571 10 0 60180 70200.00000 0 15872788.007 -487484.404 19982842.688 10 0 60180 71100.00000 0 13888167.748 1112869.282 21385832.754 10 0 60180 72000.00000 0 11920062.504 2956197.098 22374266.994 10 0 60180 72900.00000 0 10027900.832 5008570.825 22928961.270 10 0 60180 73800.00000 0 8264804.900 7225497.938 23039117.491 10 0 60180 74700.00000 0 6675511.066 9553553.006 22702534.547 10 0 60180 75600.00000 0 5294655.789 11932393.507 21925655.703 10 0 60180 76500.00000 0 4145497.451 14297077.893 20723451.195 10 0 60180 77400.00000 0 3239126.776 16580591.053 19119137.629 10 0 60180 78300.00000 0 2574198.327 18716473.405 17143738.685 10 0 60180 79200.00000 0 2137194.078 20641445.192 14835494.500 10 0 60180 80100.00000 0 1903207.882 22297917.137 12239130.062 10 0 60180 81000.00000 0 1837217.874 23636282.888 9404995.706 10 0 60180 81900.00000 0 1895793.221 24616897.247 6388095.522 10 0 60180 82800.00000 0 2029163.153 25211656.840 3247021.998 10 0 60180 83700.00000 0 2183560.579 25405116.270 42817.392 10 0 60180 84600.00000 0 2303740.669 25195092.088 -3162215.912 10 0 60180 85500.00000 0 2335566.973 24592728.455 -6305732.386 10 0 60181 0.00000 0 2228554.545 23622021.187 -9326562.998 10 0 60181 900.00000 0 1938260.980 22318819.232 -12165914.495 10 0 60181 1800.00000 0 1428422.875 20729346.781 -14768519.976 10 0 60181 2700.00000 0 672745.663 18908306.513 -17083722.904 10 0 60181 3600.00000 0 -343730.250 16916645.171 -19066468.655 10 0 60181 4500.00000 0 -1623746.152 14819075.281 -20678185.444 10 0 60181 5400.00000 0 -3157462.986 12681457.419 -21887536.965 10 0 60181 6300.00000 0 -4922636.998 10568153.108 -22671032.108 10 0 60181 7200.00000 0 -6885326.609 8539459.335 -23013480.069 10 0 60181 8100.00000 0 -9001101.616 6649231.935 -22908282.354 10 0 60181 9000.00000 0 -11216704.698 4942796.790 -22357556.426 10 0 60181 9900.00000 0 -13472096.119 3455235.478 -21372088.997 10 0 60181 10800.00000 0 -15702796.507 2210115.955 -19971120.314 10 0 60181 11700.00000 0 -17842430.071 1218720.045 -18181963.925 10 0 60181 12600.00000 0 -19825362.209 479798.519 -16039469.658 10 0 60181 13500.00000 0 -21589321.492 -20137.698 -13585340.437 10 0 60181 14400.00000 0 -23077896.706 -306004.170 -10867316.462 10 0 60181 15300.00000 0 -24242804.761 -412843.383 -7938242.836 10 0 60181 16200.00000 0 -25045835.004 -384095.286 -4855039.034 10 0 60181 17100.00000 0 -25460388.999 -269512.286 -1677590.478 10 0 60181 18000.00000 0 -25472551.855 -122807.879 1532415.861 10 0 60181 18900.00000 0 -25081650.907 860.852 4712688.991 10 0 60181 19800.00000 0 -24300279.042 47469.833 7801541.106 10 0 60181 20700.00000 0 -23153782.394 -33345.587 10739080.916 10 0 60181 21600.00000 0 -21679234.476 -285921.364 13468370.107 10 0 60181 22500.00000 0 -19923940.141 -746452.698 15936520.810 10 0 60181 23400.00000 0 -17943532.132 -1441228.376 18095713.324 10 0 60181 24300.00000 0 -15799739.706 -2385285.945 19904115.106 10 0 60181 25200.00000 0 -13557922.060 -3581544.675 21326684.075 10 0 60181 26100.00000 0 -11284468.750 -5020453.218 22335841.512 10 0 60181 27000.00000 0 -9044174.481 -6680167.644 22912002.366 10 0 60181 27900.00000 0 -6897696.429 -8527253.597 23043953.316 10 0 60181 28800.00000 0 -4899198.745 -10517884.666 22729071.603 10 0 60181 29700.00000 0 -3094281.096 -12599488.611 21973380.473 10 0 60181 30600.00000 0 -1518276.328 -14712774.509 20791439.780 10 0 60181 31500.00000 0 -194987.345 -16794057.922 19206073.257 10 0 60181 32400.00000 0 864084.893 -18777788.622 17247936.772 10 0 60181 33300.00000 0 1659990.475 -20599176.591 14954934.847 10 0 60181 34200.00000 0 2206046.650 -22196807.382 12371495.604 10 0 60181 35100.00000 0 2527033.070 -23515137.883 9547717.115 10 0 60181 36000.00000 0 2657900.121 -24506767.933 6538400.844 10 0 60181 36900.00000 0 2642044.962 -25134392.083 3401990.389 10 0 60181 37800.00000 0 2529228.287 -25372348.852 199435.901 10 0 60181 38700.00000 0 2373220.358 -25207701.415 -3006993.618 10 0 60181 39600.00000 0 2229276.590 -24640803.283 -6154926.533 10 0 60181 40500.00000 0 2151550.521 -23685324.214 -9183108.923 10 0 60181 41400.00000 0 2190554.878 -22367734.493 -12032604.413 10 0 60181 42300.00000 0 2390779.556 -20726268.696 -14647949.163 10 0 60181 43200.00000 0 2788568.715 -18809412.247 -16978238.656 10 0 60181 44100.00000 0 3410348.159 -16673974.245 -18978124.413 10 0 60181 45000.00000 0 4271279.223 -14382827.591 -20608700.705 10 0 60181 45900.00000 0 5374397.137 -12002411.383 -21838263.772 10 0 60181 46800.00000 0 6710271.250 -9600100.333 -22642928.772 10 0 60181 47700.00000 0 8257202.254 -7241551.390 -23007092.612 10 0 60181 48600.00000 0 9981948.848 -4988138.372 -22923734.045 10 0 60181 49500.00000 0 11840953.882 -2894581.370 -22394545.575 10 0 60181 50400.00000 0 13782018.977 -1006869.284 -21429895.059 10 0 60181 51300.00000 0 15746357.749 639438.739 -20048618.128 10 0 60181 52200.00000 0 17670941.884 2020463.315 -18277645.827 10 0 60181 53100.00000 0 19491041.941 3124755.513 -16151474.997 10 0 60181 54000.00000 0 21142856.646 3953518.571 -13711491.932 10 0 60181 54900.00000 0 22566120.654 4520293.187 -11005162.663 10 0 60181 55800.00000 0 23706581.675 4850121.481 -8085105.895 10 0 60181 56700.00000 0 24518243.316 4978226.601 -5008066.832 10 0 60181 57600.00000 0 24965279.898 4948265.241 -1833812.127 10 0 60181 58500.00000 0 25023543.250 4810228.196 1376032.252 10 0 60181 59400.00000 0 24681598.721 4618078.731 4559177.407 10 0 60181 60300.00000 0 23941247.394 4427229.375 7653878.729 10 0 60181 61200.00000 0 22817513.082 4291964.299 10600130.414 10 0 60181 62100.00000 0 21338095.022 4262916.471 13340824.232 10 0 60181 63000.00000 0 19542309.440 4384706.181 15822850.392 10 0 60181 63900.00000 0 17479564.337 4693840.583 17998119.654 10 0 60181 64800.00000 0 15207431.007 5216962.681 19824487.605 10 0 60181 65700.00000 0 12789392.284 5969523.557 21266564.024 10 0 60181 66600.00000 0 10292360.650 6954933.877 22296392.514 10 0 60181 67500.00000 0 7784068.497 8164230.794 22893988.042 10 0 60181 68400.00000 0 5330437.929 9576275.074 23047722.627 10 0 60181 69300.00000 0 2993038.168 11158471.275 22754552.074 10 0 60181 70200.00000 0 826734.925 12867982.301 22020079.418 10 0 60181 71100.00000 0 -1122371.770 14653389.091 20858453.546 10 0 60181 72000.00000 0 -2818636.559 16456727.716 19292104.319 10 0 60181 72900.00000 0 -4238115.125 18215820.234 17351318.422 10 0 60181 73800.00000 0 -5369316.635 19866803.183 15073663.048 10 0 60181 74700.00000 0 -6213431.254 21346748.814 12503267.440 10 0 60181 75600.00000 0 -6784023.577 22596269.830 9689975.159 10 0 60181 76500.00000 0 -7106205.055 23561998.505 6688382.598 10 0 60181 77400.00000 0 -7215320.451 24198835.709 3556781.855 10 0 60181 78300.00000 0 -7155203.989 24471874.635 356028.252 10 0 60181 79200.00000 0 -6976079.256 24357917.257 -2851645.387 10 0 60181 80100.00000 0 -6732192.247 23846518.557 -6003844.139 10 0 60181 81000.00000 0 -6479278.545 22940513.333 -9039231.699 10 0 60181 81900.00000 0 -6271972.873 21656002.324 -11898731.779 10 0 60181 82800.00000 0 -6161271.871 20021797.309 -14526685.822 10 0 60181 83700.00000 0 -6192158.733 18078347.816 -16871943.625 10 0 60181 84600.00000 0 -6401491.435 15876194.110 -18888864.918 10 0 60181 85500.00000 0 -6816245.015 13474011.158 -20538211.860 10 0 60182 0.00000 0 -7452183.111 10936325.735 -21787914.730 10 0 60182 900.00000 0 -8313016.060 8331000.847 -22613696.506 10 0 60182 1800.00000 0 -9390080.892 5726596.080 -22999542.738 10 0 60182 2700.00000 0 -10662558.318 3189709.477 -22938010.170 10 0 60182 3600.00000 0 -12098217.238 782414.914 -22430366.743 10 0 60182 4500.00000 0 -13654656.015 -1440099.999 -21486561.442 10 0 60182 5400.00000 0 -15280988.558 -3431597.612 -20125024.850 10 0 60182 6300.00000 0 -16919904.524 -5156470.572 -18372304.646 10 0 60182 7200.00000 0 -18510017.239 -6590970.033 -16262543.417 10 0 60182 8100.00000 0 -19988400.821 -7723932.065 -13836809.197 10 0 60182 9000.00000 0 -21293210.035 -8556973.687 -11142291.938 10 0 60182 9900.00000 0 -22366272.913 -9104152.192 -8231381.804 10 0 60182 10800.00000 0 -23155547.294 -9391103.989 -5160647.427 10 0 60182 11700.00000 0 -23617338.230 -9453700.991 -1989734.248 10 0 60182 12600.00000 0 -23718183.220 -9336282.739 1219795.308 10 0 60182 13500.00000 0 -23436326.308 -9089540.227 4405657.062 10 0 60182 14400.00000 0 -22762719.370 -8768141.756 7506052.302 10 0 60182 15300.00000 0 -21701508.789 -8428201.835 10460863.447 10 0 60182 16200.00000 0 -20269987.312 -8124700.411 13212815.090 10 0 60182 17100.00000 0 -18498013.148 -7908961.516 15708578.191 10 0 60182 18000.00000 0 -16426920.565 -7826297.643 17899796.507 10 0 60182 18900.00000 0 -14107967.149 -7913918.940 19744016.082 10 0 60182 19800.00000 0 -11600381.961 -8199195.094 21205500.619 10 0 60182 20700.00000 0 -8969095.087 -8698342.884 22255917.776 10 0 60182 21600.00000 0 -6282242.008 -9415594.689 22874883.932 10 0 60182 22500.00000 0 -3608545.232 -10342883.213 23050357.497 10 0 60182 23400.00000 0 -1014680.627 -11460056.371 22778873.546 10 0 60182 24300.00000 0 1437263.595 -12735614.334 22065615.298 10 0 60182 25200.00000 0 3692131.072 -14127939.136 20924320.748 10 0 60182 26100.00000 0 5703748.417 -15586966.767 19377025.670 10 0 60182 27000.00000 0 7436598.985 -17056233.140 17453647.035 10 0 60182 27900.00000 0 8867050.328 -18475209.536 15191413.836 10 0 60182 28800.00000 0 9984084.674 -19781830.641 12634155.215 10 0 60182 29700.00000 0 10789502.271 -20915109.777 9831458.611 10 0 60182 30600.00000 0 11297589.348 -21817731.729 6837713.361 10 0 60182 31500.00000 0 11534264.839 -22438513.948 3711057.735 10 0 60182 32400.00000 0 11535742.064 -22734631.893 512249.591 10 0 60182 33300.00000 0 11346762.129 -22673513.840 -2696517.295 10 0 60182 34200.00000 0 11018474.184 -22234324.061 -5852827.752 10 0 60182 35100.00000 0 10606052.837 -21408970.499 -8895266.236 10 0 60182 36000.00000 0 10166154.422 -20202593.164 -11764619.731 10 0 60182 36900.00000 0 9754320.751 -18633511.389 -14405038.130 10 0 60182 37800.00000 0 9422441.365 -16732631.174 -16765128.621 10 0 60182 38700.00000 0 9216382.687 -14542336.666 -18798962.049 10 0 60182 39600.00000 0 9173885.369 -12114911.800 -20466971.109 10 0 60182 40500.00000 0 9322819.547 -9510557.854 -21736722.625 10 0 60182 41400.00000 0 9679872.348 -6795089.694 -22583548.854 10 0 60182 42300.00000 0 10249723.525 -4037406.839 -22991025.706 10 0 60182 43200.00000 0 11024744.302 -1306844.764 -22951288.891 10 0 60182 44100.00000 0 11985232.261 1329483.429 -22465182.284 10 0 60182 45000.00000 0 13100172.445 3809244.587 -21542236.041 10 0 60182 45900.00000 0 14328492.598 6077236.449 -20200475.297 10 0 60182 46800.00000 0 15620759.684 8087434.952 -18466063.543 10 0 60182 47700.00000 0 16921246.166 9804653.686 -16372787.879 10 0 60182 48600.00000 0 18170279.068 11205747.706 -13961396.443 10 0 60182 49500.00000 0 19306772.833 12280313.047 -11278801.076 10 0 60182 50400.00000 0 20270839.353 13030854.461 -8377160.991 10 0 60182 51300.00000 0 21006365.236 13472416.220 -5312865.497 10 0 60182 52200.00000 0 21463447.839 13631693.339 -2145435.817 10 0 60182 53100.00000 0 21600587.539 13545662.342 1063632.360 10 0 60182 54000.00000 0 21386544.066 13259790.736 4252062.832 10 0 60182 54900.00000 0 20801778.874 12825901.931 7358006.000 10 0 60182 55800.00000 0 19839423.022 12299786.587 10321235.604 10 0 60182 56700.00000 0 18505729.906 11738661.706 13084311.944 10 0 60182 57600.00000 0 16819993.785 11198584.927 15593689.371 10 0 60182 58500.00000 0 14813937.245 10731932.967 17800747.008 10 0 60182 59400.00000 0 12530592.804 10385050.234 19662723.445 10 0 60182 60300.00000 0 10022724.603 10196166.193 21143538.103 10 0 60182 61200.00000 0 7350855.099 10193668.733 22214484.201 10 0 60182 62100.00000 0 4580977.687 10394805.824 22854780.712 10 0 60182 63000.00000 0 1782048.990 10804869.887 23051973.276 10 0 60182 63900.00000 0 -976636.470 11416899.368 22802176.698 10 0 60182 64800.00000 0 -3628081.772 12211910.527 22110154.415 10 0 60182 65700.00000 0 -6110125.302 13159650.574 20989233.134 10 0 60182 66600.00000 0 -8367776.586 14219841.625 19461053.690 10 0 60182 67500.00000 0 -10355254.259 15343864.487 17555162.057 10 0 60182 68400.00000 0 -12037642.237 16476812.813 15308447.360 10 0 60182 69300.00000 0 -13392095.639 17559832.386 12764436.649 10 0 60182 70200.00000 0 -14408546.488 18532647.965 9972459.010 10 0 60182 71100.00000 0 -15089879.898 19336171.797 6986694.308 10 0 60182 72000.00000 0 -15451573.498 19915083.870 3865124.448 10 0 60182 72900.00000 0 -15520815.405 20220274.685 668407.211 10 0 60182 73800.00000 0 -15335138.115 20211046.637 -2541305.341 10 0 60182 74700.00000 0 -14940626.323 19856979.905 -5701580.472 10 0 60182 75600.00000 0 -14389774.875 19139382.736 -8750926.068 10 0 60182 76500.00000 0 -13739088.142 18052263.401 -11629994.997 10 0 60182 77400.00000 0 -13046523.188 16602781.444 -14282748.091 10 0 60182 78300.00000 0 -12368885.810 14811157.838 -16657552.255 10 0 60182 79200.00000 0 -11759290.520 12710046.726 -18708191.573 10 0 60182 80100.00000 0 -11264792.690 10343394.213 -20394771.160 10 0 60182 81000.00000 0 -10924293.639 7764831.417 -21684495.913 10 0 60182 81900.00000 0 -10766807.590 5035668.531 -22552308.955 10 0 60182 82800.00000 0 -10810163.967 2222573.461 -22981377.490 10 0 60182 83700.00000 0 -11060199.784 -604968.395 -22963416.958 10 0 60182 84600.00000 0 -11510476.109 -3377307.578 -22498847.600 10 0 60182 85500.00000 0 -12142530.266 -6027287.052 -21596780.804 10 0 60183 0.00000 0 -12926652.742 -8492791.430 -20274836.086 10 0 60183 900.00000 0 -13823156.158 -10719084.819 -18558791.811 10 0 60183 1800.00000 0 -14784081.348 -12660837.562 -16482078.639 10 0 60183 2700.00000 0 -15755269.724 -14283762.970 -14085123.438 10 0 60183 3600.00000 0 -16678713.260 -15565793.801 -11414558.288 10 0 60183 4500.00000 0 -17495083.138 -16497752.224 -8522309.583 10 0 60183 5400.00000 0 -18146330.203 -17083486.739 -5464585.279 10 0 60183 6300.00000 0 -18578247.401 -17339472.055 -2300780.197 10 0 60183 7200.00000 0 -18742886.051 -17293890.438 907679.008 10 0 60183 8100.00000 0 -18600724.062 -16985234.769 4098526.538 10 0 60183 9000.00000 0 -18122494.689 -16460493.443 7209864.452 10 0 60183 9900.00000 0 -17290598.790 -15772994.654 10181360.440 10 0 60183 10800.00000 0 -16100041.136 -14980001.621 12955413.209 10 0 60183 11700.00000 0 -14558851.204 -14140160.452 15478263.192 10 0 60183 12600.00000 0 -12687970.519 -13310908.183 17701027.501 10 0 60183 13500.00000 0 -10520610.689 -12545949.845 19580639.742 10 0 60183 14400.00000 0 -8101108.175 -11892910.218 21080677.306 10 0 60183 15300.00000 0 -5483322.587 -11391258.411 22172060.945 10 0 60183 16200.00000 0 -2728643.928 -11070591.838 22833613.889 10 0 60183 17100.00000 0 96309.780 -10949351.189 23052470.340 10 0 60183 18000.00000 0 2922210.376 -11034020.034 22824325.832 10 0 60183 18900.00000 0 5679650.037 -11318842.672 22153524.700 10 0 60183 19800.00000 0 8301776.730 -11786072.379 21052982.726 10 0 60183 20700.00000 0 10726826.589 -12406740.274 19543945.852 10 0 60183 21600.00000 0 12900449.218 -13141913.321 17655588.773 10 0 60183 22500.00000 0 14777730.103 -13944389.554 15424460.110 10 0 60183 23400.00000 0 16324826.511 -14760760.178 12893783.789 10 0 60183 24300.00000 0 17520148.994 -15533752.461 10112629.078 10 0 60183 25200.00000 0 18355039.237 -16204755.194 7134964.474 10 0 60183 26100.00000 0 18833915.931 -16716420.319 4018613.185 10 0 60183 27000.00000 0 18973882.513 -17015230.574 824130.212 10 0 60183 27900.00000 0 18803813.369 -17053924.019 -2386377.102 10 0 60183 28800.00000 0 18362957.143 -16793671.885 -5550461.666 10 0 60183 29700.00000 0 17699116.448 -16205916.400 -8606558.102 10 0 60183 30600.00000 0 16866481.341 -15273789.394 -11495188.473 10 0 60183 31500.00000 0 15923208.787 -13993050.254 -14160127.796 10 0 60183 32400.00000 0 14928851.155 -12372502.125 -16549505.800 10 0 60183 33300.00000 0 13941743.230 -10433867.450 -18616822.711 10 0 60183 34200.00000 0 13016458.848 -8211126.898 -20321858.715 10 0 60183 35100.00000 0 12201445.126 -5749348.459 -21631459.121 10 0 60183 36000.00000 0 11536934.509 -3103055.015 -22520179.874 10 0 60183 36900.00000 0 11053222.844 -334198.110 -22970781.018 10 0 60183 37800.00000 0 10769385.927 2490177.880 -22974558.822 10 0 60183 38700.00000 0 10692488.279 5300484.153 -22531510.532 10 0 60183 39600.00000 0 10817316.943 8027242.604 -21650328.963 10 0 60183 40500.00000 0 11126650.842 10603737.552 -20348227.483 10 0 60183 41400.00000 0 11592053.639 12968554.208 -18650599.135 10 0 60183 42300.00000 0 12175155.928 15067898.889 -16590516.849 10 0 60183 43200.00000 0 12829371.997 16857605.174 -14208084.718 10 0 60183 44100.00000 0 13501978.125 18304743.471 -11549653.156 10 0 60183 45000.00000 0 14136464.178 19388768.034 -8666913.452 10 0 60183 45900.00000 0 14675058.777 20102154.936 -5615889.561 10 0 60183 46800.00000 0 15061321.122 20450505.861 -2455846.968 10 0 60183 47700.00000 0 15242689.736 20452114.917 751859.863 10 0 60183 48600.00000 0 15172880.408 20137018.216 3944978.807 10 0 60183 49500.00000 0 14814032.008 19545567.544 7061566.865 10 0 60183 50400.00000 0 14138509.585 18726589.245 10041188.872 10 0 60183 51300.00000 0 13130288.670 17735206.654 12826084.973 10 0 60183 52200.00000 0 11785862.302 16630418.147 15362284.497 10 0 60183 53100.00000 0 10114632.324 15472532.882 17600645.094 10 0 60183 54000.00000 0 8138767.970 14320571.786 19497797.651 10 0 60183 54900.00000 0 5892536.818 13229742.528 21016979.492 10 0 60183 55800.00000 0 3421135.041 12249093.804 22128740.535 10 0 60183 56700.00000 0 779064.410 11419446.570 22811509.544 10 0 60183 57600.00000 0 -1971877.927 10771688.188 23052010.173 10 0 60183 58500.00000 0 -4764914.881 10325500.371 22845519.141 10 0 60183 59400.00000 0 -7530815.630 10088573.781 22195961.685 10 0 60183 60300.00000 0 -10200529.349 10056342.058 21115842.169 10 0 60183 61200.00000 0 -12707818.556 10212246.540 19626010.659 10 0 60183 62100.00000 0 -14991783.961 10528520.937 17755269.124 10 0 60183 63000.00000 0 -16999176.796 10967463.573 15539823.806 10 0 60183 63900.00000 0 -18686402.978 11483144.306 13022593.286 10 0 60183 64800.00000 0 -20021135.864 12023474.868 10252384.550 10 0 60183 65700.00000 0 -20983470.310 12532555.757 7282952.092 10 0 60183 66600.00000 0 -21566569.612 12953200.805 4171957.724 10 0 60183 67500.00000 0 -21776778.019 13229532.536 979850.947 10 0 60183 68400.00000 0 -21633193.927 13309538.039 -2231308.308 10 0 60183 69300.00000 0 -21166721.653 13147476.280 -5399061.230 10 0 60183 70200.00000 0 -20418641.825 12706033.778 -8461771.755 10 0 60183 71100.00000 0 -19438760.995 11958135.987 -11359833.629 10 0 60183 72000.00000 0 -18283219.010 10888336.235 -14036838.417 10 0 60183 72900.00000 0 -17012047.333 9493721.967 -16440680.862 10 0 60183 73800.00000 0 -15686581.975 7784298.528 -18524579.298 10 0 60183 74700.00000 0 -14366840.902 5782832.974 -20247990.675 10 0 60183 75600.00000 0 -13108976.972 3524163.254 -21577402.094 10 0 60183 76500.00000 0 -11962914.109 1054000.770 -22486983.387 10 0 60183 77400.00000 0 -10970266.326 -1572724.298 -22959088.166 10 0 60183 78300.00000 0 -10162627.008 -4293906.334 -22984593.924 10 0 60183 79200.00000 0 -9560299.949 -7042611.509 -22563074.975 10 0 60183 80100.00000 0 -9171524.800 -9749631.340 -21702805.304 10 0 60183 81000.00000 0 -8992228.615 -12346136.608 -20420591.699 10 0 60183 81900.00000 0 -9006312.874 -14766321.521 -18741440.782 10 0 60183 82800.00000 0 -9186462.815 -16949928.472 -16698066.727 10 0 60183 83700.00000 0 -9495443.888 -18844548.841 -14330249.506 10 0 60183 84600.00000 0 -9887829.633 -20407604.708 -11684056.344 10 0 60183 85500.00000 0 -10312087.188 -21607929.705 -8810941.770 99